TimeEST,TemperatureF,Dew PointF,Humidity,Sea Level PressureIn,VisibilityMPH,Wind Direction,Wind SpeedMPH,Gust SpeedMPH,PrecipitationIn,Events,Conditions,WindDirDegrees,DateUTC
12:55 AM,70.2,59.2,68,30.19,10.0,ESE,4.6,-,N/A,,Mostly Cloudy,110,2013-01-01 05:55:00
1:55 AM,70.2,60.1,70,30.19,10.0,ESE,6.9,-,N/A,,Overcast,110,2013-01-01 06:55:00
2:55 AM,70.0,59.5,69,30.18,10.0,East,4.6,-,N/A,,Overcast,100,2013-01-01 07:55:00
3:55 AM,69.1,60.4,74,30.18,10.0,Calm,Calm,-,N/A,,Scattered Clouds,0,2013-01-01 08:55:00
4:55 AM,69.8,60.3,72,30.18,10.0,East,6.9,-,N/A,,Overcast,100,2013-01-01 09:55:00
5:55 AM,70.3,59.4,68,30.16,10.0,East,6.9,-,N/A,,Mostly Cloudy,100,2013-01-01 10:55:00
6:55 AM,69.3,58.8,69,30.15,10.0,ESE,8.1,-,N/A,,Scattered Clouds,120,2013-01-01 11:55:00
7:55 AM,71.1,58.1,63,30.17,10.0,ESE,5.8,-,N/A,,Mostly Cloudy,120,2013-01-01 12:55:00
8:55 AM,73.4,59.7,62,30.17,10.0,ESE,6.9,-,N/A,,Scattered Clouds,110,2013-01-01 13:55:00
9:55 AM,74.5,60.3,61,30.19,10.0,SE,9.2,-,N/A,,Scattered Clouds,140,2013-01-01 14:55:00
10:55 AM,75.4,61.5,62,30.18,10.0,SE,11.5,18.4,N/A,,Mostly Cloudy,130,2013-01-01 15:55:00
11:55 AM,76.5,61.9,61,30.16,10.0,SE,12.7,-,N/A,,Scattered Clouds,140,2013-01-01 16:55:00
12:55 PM,76.3,62.4,62,30.12,10.0,SE,16.1,-,N/A,,Scattered Clouds,130,2013-01-01 17:55:00
1:55 PM,77.9,64.0,62,30.09,10.0,SE,13.8,-,N/A,,Partly Cloudy,140,2013-01-01 18:55:00
2:55 PM,76.5,64.2,66,30.08,10.0,SSE,11.5,-,N/A,,Partly Cloudy,150,2013-01-01 19:55:00
3:55 PM,75.6,64.6,69,30.08,10.0,SE,9.2,-,N/A,,Mostly Cloudy,140,2013-01-01 20:55:00
4:55 PM,75.9,64.8,68,30.07,10.0,SSE,6.9,-,N/A,,Mostly Cloudy,150,2013-01-01 21:55:00
5:55 PM,71.2,64.0,78,30.07,10.0,ESE,3.5,-,N/A,,Clear,120,2013-01-01 22:55:00
6:55 PM,67.6,63.9,88,30.08,10.0,East,3.5,-,N/A,,Clear,100,2013-01-01 23:55:00
7:55 PM,65.8,63.1,91,30.08,10.0,East,3.5,-,N/A,,Clear,90,2013-01-02 00:55:00
8:55 PM,64.4,61.7,91,30.10,10.0,North,3.5,-,N/A,,Clear,360,2013-01-02 01:55:00
9:55 PM,64.2,62.2,93,30.10,10.0,Calm,Calm,-,N/A,,Clear,0,2013-01-02 02:55:00
10:55 PM,64.2,61.9,92,30.10,10.0,Calm,Calm,-,N/A,,Clear,0,2013-01-02 03:55:00
11:55 PM,63.9,61.9,93,30.09,10.0,Calm,Calm,-,N/A,,Partly Cloudy,0,2013-01-02 04:55:00